DW3219 Weather Reports


Display with metric or nautical units.
time (UTC)temp
F
wind
direction
speed
MPH
gust
MPH
rain 1hr
in
rain 24hr
in
rain mn
in
humidity
%
barometer
mb
20260903130009 60 248 0.0 2.0 0.00 0.00 0.00 52 1002.0
20260903124508 61 247 0.0 0.0 0.00 0.00 0.00 53 1001.7
20260903123008 61 248 0.0 0.0 0.00 0.00 0.00 49 1001.8
20260903121506 61 246 0.0 0.0 0.00 0.00 0.00 52 1001.9
20260903120006 61 229 0.0 0.0 0.00 0.00 0.00 50 1002.0
20260903114505 61 214 0.0 4.0 0.00 0.00 0.00 51 1002.2
20260903113010 62 185 0.0 0.0 0.00 0.00 0.00 51 1002.2
20260903111506 62 275 0.0 0.0 0.00 0.00 0.00 50 1002.5
20260903110059 62 277 0.0 0.0 0.00 0.00 0.00 50 1002.5
20260903104557 62 281 0.0 0.0 0.00 0.00 0.00 50 1002.6
20260903103048 62 279 0.0 0.0 0.00 0.00 0.00 48 1002.6
20260903101548 62 267 0.0 0.0 0.00 0.00 0.00 47 1002.5
20260903100047 62 180 0.0 2.0 0.00 0.00 0.00 50 1002.7
20260903094545 62 296 0.0 0.0 0.00 0.00 0.00 54 1002.1
20260903093053 62 317 0.0 0.0 0.00 0.00 0.00 52 1002.1
20260903091541 63 317 0.0 1.0 0.00 0.00 0.00 55 1002.0
20260903090027 63 194 0.0 0.0 0.00 0.00 0.00 52 1002.0
20260903084529 63 194 0.0 0.0 0.00 0.00 0.00 53 1001.6
20260903083001 64 192 0.0 0.0 0.00 0.00 0.00 48 1001.6
20260903081600 64 192 0.0 0.0 0.00 0.00 0.00 51 1001.4
20260903080048 64 192 0.0 0.0 0.00 0.00 0.00 50 1001.4
20260903074557 64 192 0.0 0.0 0.00 0.00 0.00 51 1001.5
20260903073046 65 192 0.0 0.0 0.00 0.00 0.00 48 1001.7
20260903071541 66 138 0.0 0.0 0.00 0.00 0.00 45 1001.9
20260903070044 66 138 0.0 0.0 0.00 0.00 0.00 40 1001.9
20260903064538 66 270 0.0 0.0 0.00 0.00 0.00 41 1001.7
20260903063036 66 274 0.0 0.0 0.00 0.00 0.00 42 1001.7
20260903061535 67 274 0.0 0.0 0.00 0.00 0.00 42 1001.7
20260903060021 67 274 0.0 0.0 0.00 0.00 0.00 40 1001.7
20260903054525 68 274 0.0 0.0 0.00 0.00 0.00 38 1001.4
20260903053016 68 274 0.0 0.0 0.00 0.00 0.00 36 1001.5
20260903051514 69 274 0.0 0.0 0.00 0.00 0.00 36 1001.6
20260903050010 70 274 0.0 1.0 0.00 0.00 0.00 35 1001.6
20260903044506 71 273 0.0 1.0 0.00 0.00 0.00 31 1001.4
20260903043009 71 271 0.0 3.0 0.00 0.00 0.00 31 1001.3
20260903041505 72 267 0.0 0.0 0.00 0.00 0.00 32 1001.3
20260903040042 75 270 0.0 0.0 0.00 0.00 0.00 28 1001.2
20260903034542 76 274 0.0 0.0 0.00 0.00 0.00 26 1001.0
20260903033031 77 259 0.0 0.0 0.00 0.00 0.00 24 1000.8
20260903031523 76 254 0.0 0.0 0.00 0.00 0.00 25 1000.8
20260903030008 75 234 0.0 3.0 0.00 0.00 0.00 26 1000.5
20260903024505 75 241 0.0 0.0 0.00 0.00 0.00 31 1000.2
20260903023001 75 242 0.0 0.0 0.00 0.00 0.00 33 1000.1
20260903021557 77 242 0.0 0.0 0.00 0.00 0.00 31 999.7
20260903020056 79 242 0.0 0.0 0.00 0.00 0.00 30 999.5
20260903014606 80 242 0.0 0.0 0.00 0.00 0.00 28 999.4
20260903013046 81 244 0.0 0.0 0.00 0.00 0.00 26 999.6
20260903011544 82 252 0.0 0.0 0.00 0.00 0.00 26 999.6
20260903010042 83 252 0.0 5.0 0.00 0.00 0.00 25 999.6
20260903004535 84 254 0.0 15.0 0.00 0.00 0.00 22 999.7
20260903003028 84 239 3.0 13.0 0.00 0.00 0.00 21 999.6
20260903001525 84 247 4.0 13.0 0.00 0.00 0.00 22 999.5
20260903000023 84 236 0.0 7.0 0.00 0.00 0.00 23 999.4
20260902234521 86 257 0.0 7.0 0.00 0.00 0.00 19 999.2
20260902233021 87 232 0.0 14.0 0.00 0.00 0.00 18 999.1
20260902231520 87 236 5.0 17.0 0.00 0.00 0.00 18 999.0
20260902230020 88 200 1.0 12.0 0.00 0.00 0.00 18 998.9
20260902224506 90 260 4.0 12.0 0.00 0.00 0.00 15 998.8
20260902223005 89 189 2.0 11.0 0.00 0.00 0.00 17 998.8
20260902221503 89 259 4.0 15.0 0.00 0.00 0.00 17 998.8
20260902220101 89 217 0.0 4.0 0.00 0.00 0.00 18 998.9
20260902214557 86 183 0.0 1.0 0.00 0.00 0.00 21 998.9
20260902213101 86 34 0.0 1.0 0.00 0.00 0.00 25 998.9
20260902211557 86 263 0.0 0.0 0.00 0.00 0.00 23 999.3
20260902210057 85 105 0.0 0.0 0.00 0.00 0.00 24 999.6
20260902204536 86 70 0.0 1.0 0.00 0.00 0.00 25 999.7
20260902203034 86 291 0.0 1.0 0.00 0.00 0.00 23 1000.1
20260902201537 86 274 0.0 2.0 0.00 0.00 0.00 22 1000.3
20260902200034 85 265 0.0 4.0 0.00 0.00 0.00 22 1000.5
20260902194536 86 194 0.0 8.0 0.00 0.00 0.00 22 1000.7
20260902193030 86 211 0.0 8.0 0.00 0.00 0.00 23 1000.9
20260902191528 85 204 0.0 14.0 0.00 0.00 0.00 24 1001.3
20260902190025 84 195 0.0 11.0 0.00 0.00 0.00 24 1001.6
20260902184502 85 180 1.0 8.0 0.00 0.00 0.00 26 1002.0
20260902183002 84 191 0.0 7.0 0.00 0.00 0.00 26 1002.4
20260902181547 83 208 0.0 9.0 0.00 0.00 0.00 26 1002.6
20260902180046 82 132 0.0 4.0 0.00 0.00 0.00 29 1002.8
20260902174542 81 135 0.0 5.0 0.00 0.00 0.00 29 1003.2
20260902173040 81 165 0.0 6.0 0.00 0.00 0.00 30 1003.5
20260902171541 80 142 0.0 6.0 0.00 0.00 0.00 30 1003.5
20260902170041 79 140 0.0 8.0 0.00 0.00 0.00 33 1003.7
20260902164540 78 142 1.0 9.0 0.00 0.00 0.00 33 1003.8
20260902163045 77 137 0.0 8.0 0.00 0.00 0.00 35 1003.9
20260902161526 76 125 0.0 11.0 0.00 0.00 0.00 37 1004.1
20260902160023 75 155 1.0 8.0 0.00 0.00 0.00 36 1004.1
20260902154523 74 177 0.0 6.0 0.00 0.00 0.00 38 1004.4
20260902153027 72 160 1.0 9.0 0.00 0.00 0.00 40 1004.7
20260902151522 70 246 0.0 0.0 0.00 0.00 0.00 45 1004.8
20260902150021 70 189 0.0 0.0 0.00 0.00 0.00 45 1004.9
20260902144532 67 126 0.0 0.0 0.00 0.00 0.00 51 1005.0
20260902143021 65 126 0.0 0.0 0.00 0.00 0.00 53 1005.0
20260902141511 62 126 0.0 0.0 0.00 0.00 0.00 55 1005.2
20260902140009 61 126 0.0 3.0 0.00 0.00 0.00 57 1005.4
20260902134511 59 113 0.0 0.0 0.00 0.00 0.00 59 1005.4
20260902133008 57 308 0.0 0.0 0.00 0.00 0.00 63 1005.5
20260902131509 56 307 0.0 0.0 0.00 0.00 0.00 65 1005.7